Location: Ferintosh
(52.7647°N, 112.9692°W)
Time: 14:59:09
(UTC+00:00)

Transit 2A - Pass Details

Date: 18 May 2024
Orbit: 592 x 959 km, 66.7° (Epoch: 23 June)

Event Time Altitude Azimuth Distance (km) Brightness Sun altitude
Rises 14:01:40 0° 319° (NW) 3,278 8.9 20.6°
Reaches altitude 10° 14:04:07 10° 326° (NW) 2,405 8.4 20.9°
Maximum altitude 14:09:26 43° 38° (NE) 1,207 7.9 21.7°
Drops below altitude 10° 14:15:12 10° 109° (ESE) 2,608 10.2 22.6°
Sets 14:17:57 0° 116° (ESE) 3,585 10.5 23.0°
